Weekly Spill Flow - Atiamuri,,
Period ended,m�,QC
1980-01-15,0,200
1980-01-22,0,200
1980-01-29,8963136,200
1980-02-05,2996179,200
1980-02-12,0,200
1980-02-19,0,200
1980-02-26,0,200
1980-03-04,0,200
1980-03-11,890265,200
1980-03-18,0,200
1980-03-25,0,200
1980-04-01,0,200
1980-04-08,0,200
1980-04-15,0,200
1980-04-22,0,200
1980-04-29,0,200
1980-05-06,0,200
1980-05-13,0,200
1980-05-20,0,200
1980-05-27,0,200
1980-06-03,0,200
1980-06-10,0,200
1980-06-17,0,200
1980-06-24,0,200
1980-07-01,0,200
1980-07-08,0,200
1980-07-15,0,200
1980-07-22,0,200
1980-07-29,0,200
1980-08-05,0,200
1980-08-12,0,200
1980-08-19,0,200
1980-08-26,0,200
1980-09-02,0,200
1980-09-09,0,200
1980-09-16,0,200
1980-09-23,0,200
1980-09-30,0,200
1980-10-07,0,200
1980-10-14,905990,200
1980-10-21,0,200
1980-10-28,0,200
1980-11-04,0,200
1980-11-11,0,200
1980-11-18,2866147,200
1980-11-25,1377129,200
1980-12-02,8181734,200
1980-12-09,4818441,200
1980-12-16,8908099,200
1980-12-23,0,200
1980-12-30,0,200
1981-01-06,0,200
1981-01-13,0,200
1981-01-20,0,200
1981-01-27,2255904,200
1981-02-03,2286748,200
1981-02-10,0,200
1981-02-17,0,200
1981-02-24,0,200
1981-03-03,0,200
1981-03-10,0,200
1981-03-17,0,200
1981-03-24,0,200
1981-03-31,0,200
1981-04-07,0,200
1981-04-14,0,200
1981-04-21,0,200
1981-04-28,0,200
1981-05-05,0,200
1981-05-12,0,200
1981-05-19,0,200
1981-05-26,0,200
1981-06-02,0,200
1981-06-09,0,200
1981-06-16,1271894,200
1981-06-23,0,200
1981-06-30,0,200
1981-07-07,0,200
1981-07-14,0,200
1981-07-21,0,200
1981-07-28,0,200
1981-08-04,0,200
1981-08-11,0,200
1981-08-18,0,200
1981-08-25,0,200
1981-09-01,0,200
1981-09-08,0,200
1981-09-15,1437004,200
1981-09-22,1262217,200
1981-09-29,0,200
1981-10-06,0,200
1981-10-13,220147,200
1981-10-20,553392,200
1981-10-27,0,200
1981-11-03,0,200
1981-11-10,0,200
1981-11-17,556416,200
1981-11-24,0,200
1981-12-01,0,200
1981-12-08,0,200
1981-12-15,0,200
1981-12-22,0,200
1981-12-29,0,200
1982-01-05,0,200
1982-01-12,0,200
1982-01-19,0,200
1982-01-26,0,200
1982-02-02,0,200
1982-02-09,0,200
1982-02-16,0,200
1982-02-23,0,200
1982-03-02,0,200
1982-03-09,0,200
1982-03-16,0,200
1982-03-23,0,200
1982-03-30,0,200
1982-04-06,0,200
1982-04-13,0,200
1982-04-20,0,200
1982-04-27,0,200
1982-05-04,0,200
1982-05-11,0,200
1982-05-18,0,200
1982-05-25,0,200
1982-06-01,0,200
1982-06-08,0,200
1982-06-15,0,200
1982-06-22,0,200
1982-06-29,0,200
1982-07-06,0,200
1982-07-13,0,200
1982-07-20,0,200
1982-07-27,0,200
1982-08-03,0,200
1982-08-10,0,200
1982-08-17,0,200
1982-08-24,0,200
1982-08-31,0,200
1982-09-07,0,200
1982-09-14,0,200
1982-09-21,0,200
1982-09-28,0,200
1982-10-05,0,200
1982-10-12,0,200
1982-10-19,641088,200
1982-10-26,415497,200
1982-11-02,0,200
1982-11-09,0,200
1982-11-16,0,200
1982-11-23,0,200
1982-11-30,0,200
1982-12-07,0,200
1982-12-14,0,200
1982-12-21,0,200
1982-12-28,0,200
1983-01-04,0,200
1983-01-11,0,200
1983-01-18,0,200
1983-01-25,0,200
1983-02-01,0,200
1983-02-08,0,200
1983-02-15,0,200
1983-02-22,0,200
1983-03-01,0,200
1983-03-08,0,200
1983-03-15,0,200
1983-03-22,0,200
1983-03-29,0,200
1983-04-05,0,200
1983-04-12,0,200
1983-04-19,0,200
1983-04-26,0,200
1983-05-03,0,200
1983-05-10,0,200
1983-05-17,0,200
1983-05-24,898732,200
1983-05-31,0,200
1983-06-07,0,200
1983-06-14,0,200
1983-06-21,0,200
1983-06-28,0,200
1983-07-05,0,200
1983-07-12,0,200
1983-07-19,0,200
1983-07-26,4261420,200
1983-08-02,0,200
1983-08-09,0,200
1983-08-16,0,200
1983-08-23,0,200
1983-08-30,0,200
1983-09-06,0,200
1983-09-13,0,200
1983-09-20,0,200
1983-09-27,0,200
1983-10-04,0,200
1983-10-11,0,200
1983-10-18,0,200
1983-10-25,0,200
1983-11-01,1427328,200
1983-11-08,4213641,200
1983-11-15,7895059,200
1983-11-22,1358380,200
1983-11-29,286675,200
1983-12-06,1153958,200
1983-12-13,36892,200
1983-12-20,0,200
1983-12-27,0,200
1984-01-03,0,200
1984-01-10,0,200
1984-01-17,0,200
1984-01-24,0,200
1984-01-31,0,200
1984-02-07,0,200
1984-02-14,0,200
1984-02-21,0,200
1984-02-28,0,200
1984-03-06,0,200
1984-03-13,0,200
1984-03-20,0,200
1984-03-27,0,200
1984-04-03,0,200
1984-04-10,0,200
1984-04-17,0,200
1984-04-24,0,200
1984-05-01,0,200
1984-05-08,0,200
1984-05-15,0,200
1984-05-22,0,200
1984-05-29,0,200
1984-06-05,0,200
1984-06-12,0,200
1984-06-19,0,200
1984-06-26,0,200
1984-07-03,0,200
1984-07-10,0,200
1984-07-17,0,200
1984-07-24,0,200
1984-07-31,0,200
1984-08-07,0,200
1984-08-14,0,200
1984-08-21,0,200
1984-08-28,0,200
1984-09-04,0,200
1984-09-11,0,200
1984-09-18,0,200
1984-09-25,0,200
1984-10-02,0,200
1984-10-09,0,200
1984-10-16,0,200
1984-10-23,0,200
1984-10-30,0,200
1984-11-06,0,200
1984-11-13,0,200
1984-11-20,0,200
1984-11-27,0,200
1984-12-04,0,200
1984-12-11,759024,200
1984-12-18,0,200
1984-12-25,0,200
1985-01-01,0,200
1985-01-08,0,200
1985-01-15,0,200
1985-01-22,0,200
1985-01-29,0,200
1985-02-05,0,200
1985-02-12,0,200
1985-02-19,0,200
1985-02-26,0,200
1985-03-05,0,200
1985-03-12,0,200
1985-03-19,0,200
1985-03-26,0,200
1985-04-02,0,200
1985-04-09,0,200
1985-04-16,0,200
1985-04-23,0,200
1985-04-30,0,200
1985-05-07,0,200
1985-05-14,0,200
1985-05-21,0,200
1985-05-28,0,200
1985-06-04,0,200
1985-06-11,0,200
1985-06-18,0,200
1985-06-25,0,200
1985-07-02,0,200
1985-07-09,0,200
1985-07-16,0,200
1985-07-23,0,200
1985-07-30,0,200
1985-08-06,0,200
1985-08-13,0,200
1985-08-20,0,200
1985-08-27,0,200
1985-09-03,0,200
1985-09-10,0,200
1985-09-17,0,200
1985-09-24,0,200
1985-10-01,0,200
1985-10-08,0,200
1985-10-15,0,200
1985-10-22,0,200
1985-10-29,0,200
1985-11-05,0,200
1985-11-12,0,200
1985-11-19,0,200
1985-11-26,0,200
1985-12-03,0,200
1985-12-10,339897,200
1985-12-17,0,200
1985-12-24,0,200
1985-12-31,0,200
1986-01-07,0,200
1986-01-14,691286,200
1986-01-21,305424,200
1986-01-28,0,200
1986-02-04,0,200
1986-02-11,0,200
1986-02-18,0,200
1986-02-25,0,200
1986-03-04,0,200
1986-03-11,0,200
1986-03-18,0,200
1986-03-25,0,200
1986-04-01,0,200
1986-04-08,0,200
1986-04-15,0,200
1986-04-22,0,200
1986-04-29,0,200
1986-05-06,0,200
1986-05-13,0,200
1986-05-20,0,200
1986-05-27,0,200
1986-06-03,0,200
1986-06-10,0,200
1986-06-17,0,200
1986-06-24,0,200
1986-07-01,0,200
1986-07-08,0,200
1986-07-15,0,200
1986-07-22,0,200
1986-07-29,0,200
1986-08-05,0,200
1986-08-12,0,200
1986-08-19,0,200
1986-08-26,0,200
1986-09-02,0,200
1986-09-09,0,200
1986-09-16,0,200
1986-09-23,0,200
1986-09-30,0,200
1986-10-07,0,200
1986-10-14,513475,200
1986-10-21,0,200
1986-10-28,0,200
1986-11-04,1937779,200
1986-11-11,0,200
1986-11-18,0,200
1986-11-25,0,200
1986-12-02,0,200
1986-12-09,0,200
1986-12-16,0,200
1986-12-23,0,200
1986-12-30,0,200
1987-01-06,0,200
1987-01-13,0,200
1987-01-20,0,200
1987-01-27,0,200
1987-02-03,0,200
1987-02-10,0,200
1987-02-17,0,200
1987-02-24,0,200
1987-03-03,0,200
1987-03-10,0,200
1987-03-17,0,200
1987-03-24,0,200
1987-03-31,0,200
1987-04-07,0,200
1987-04-14,0,200
1987-04-21,0,200
1987-04-28,0,200
1987-05-05,0,200
1987-05-12,0,200
1987-05-19,0,200
1987-05-26,0,200
1987-06-02,0,200
1987-06-09,0,200
1987-06-16,0,200
1987-06-23,0,200
1987-06-30,0,200
1987-07-07,0,200
1987-07-14,0,200
1987-07-21,0,200
1987-07-28,0,200
1987-08-04,0,200
1987-08-11,0,200
1987-08-18,0,200
1987-08-25,0,200
1987-09-01,0,200
1987-09-08,0,200
1987-09-15,0,200
1987-09-22,0,200
1987-09-29,0,200
1987-10-06,0,200
1987-10-13,0,200
1987-10-20,0,200
1987-10-27,0,200
1987-11-03,0,200
1987-11-10,0,200
1987-11-17,0,200
1987-11-24,0,200
1987-12-01,0,200
1987-12-08,0,200
1987-12-15,0,200
1987-12-22,837043,200
1987-12-29,0,200
1988-01-05,0,200
1988-01-12,0,200
1988-01-19,0,200
1988-01-26,0,200
1988-02-02,0,200
1988-02-09,0,200
1988-02-16,400377,200
1988-02-23,0,200
1988-03-01,0,200
1988-03-08,0,200
1988-03-15,0,200
1988-03-22,0,200
1988-03-29,0,200
1988-04-05,0,200
1988-04-12,0,200
1988-04-19,456624,200
1988-04-26,0,200
1988-05-03,0,200
1988-05-10,0,200
1988-05-17,0,200
1988-05-24,0,200
1988-05-31,0,200
1988-06-07,423360,200
1988-06-14,0,200
1988-06-21,0,200
1988-06-28,0,200
1988-07-05,0,200
1988-07-12,0,200
1988-07-19,0,200
1988-07-26,0,200
1988-08-02,0,200
1988-08-09,0,200
1988-08-16,0,200
1988-08-23,0,200
1988-08-30,0,200
1988-09-06,0,200
1988-09-13,0,200
1988-09-20,0,200
1988-09-27,0,200
1988-10-04,0,200
1988-10-11,0,200
1988-10-18,0,200
1988-10-25,0,200
1988-11-01,0,200
1988-11-08,0,200
1988-11-15,0,200
1988-11-22,0,200
1988-11-29,0,200
1988-12-06,5708707,200
1988-12-13,5269017,200
1988-12-20,0,200
1988-12-27,0,200
1989-01-03,229824,200
1989-01-10,820713,200
1989-01-17,0,200
1989-01-24,0,200
1989-01-31,156038,200
1989-02-07,777772,200
1989-02-14,0,200
1989-02-21,446947,200
1989-02-28,3375388,200
1989-03-07,5079110,200
1989-03-14,2892153,200
1989-03-21,3773952,200
1989-03-28,0,200
1989-04-04,2229897,200
1989-04-11,1702512,200
1989-04-18,0,200
1989-04-25,0,200
1989-05-02,0,200
1989-05-09,0,200
1989-05-16,1057190,200
1989-05-23,0,200
1989-05-30,0,200
1989-06-06,0,200
1989-06-13,0,200
1989-06-20,0,200
1989-06-27,0,200
1989-07-04,0,200
1989-07-11,0,200
1989-07-18,0,200
1989-07-25,0,200
1989-08-01,0,200
1989-08-08,0,200
1989-08-15,0,200
1989-08-22,0,200
1989-08-29,0,200
1989-09-05,0,200
1989-09-12,0,200
1989-09-19,0,200
1989-09-26,0,200
1989-10-03,0,200
1989-10-10,63504,200
1989-10-17,1274313,200
1989-10-24,0,200
1989-10-31,0,200
1989-11-07,0,200
1989-11-14,0,200
1989-11-21,0,200
1989-11-28,0,200
1989-12-05,0,200
1989-12-12,0,200
1989-12-19,0,200
1989-12-26,0,200
1990-01-02,0,200
1990-01-09,0,200
1990-01-16,0,200
1990-01-23,0,200
1990-01-30,0,200
1990-02-06,0,200
1990-02-13,0,200
1990-02-20,0,200
1990-02-27,0,200
1990-03-06,0,200
1990-03-13,0,200
1990-03-20,0,200
1990-03-27,0,200
1990-04-03,0,200
1990-04-10,0,200
1990-04-17,0,200
1990-04-24,0,200
1990-05-01,0,200
1990-05-08,0,200
1990-05-15,0,200
1990-05-22,0,200
1990-05-29,0,200
1990-06-05,0,200
1990-06-12,0,200
1990-06-19,0,200
1990-06-26,0,200
1990-07-03,0,200
1990-07-10,0,200
1990-07-17,0,200
1990-07-24,0,200
1990-07-31,0,200
1990-08-07,0,200
1990-08-14,0,200
1990-08-21,0,200
1990-08-28,0,200
1990-09-04,0,200
1990-09-11,0,200
1990-09-18,0,200
1990-09-25,0,200
1990-10-02,0,200
1990-10-09,0,200
1990-10-16,0,200
1990-10-23,0,200
1990-10-30,0,200
1990-11-06,0,200
1990-11-13,0,200
1990-11-20,0,200
1990-11-27,0,200
1990-12-04,0,200
1990-12-11,0,200
1990-12-18,0,200
1990-12-25,0,200
1991-01-01,0,200
1991-01-08,0,200
1991-01-15,0,200
1991-01-22,0,200
1991-01-29,0,200
1991-02-05,0,200
1991-02-12,0,200
1991-02-19,0,200
1991-02-26,0,200
1991-03-05,0,200
1991-03-12,0,200
1991-03-19,0,200
1991-03-26,397958,200
1991-04-02,0,200
1991-04-09,1195689,200
1991-04-16,0,200
1991-04-23,0,200
1991-04-30,0,200
1991-05-07,0,200
1991-05-14,0,200
1991-05-21,0,200
1991-05-28,0,200
1991-06-04,0,200
1991-06-11,0,200
1991-06-18,0,200
1991-06-25,0,200
1991-07-02,0,200
1991-07-09,0,200
1991-07-16,0,200
1991-07-23,0,200
1991-07-30,0,200
1991-08-06,0,200
1991-08-13,0,200
1991-08-20,0,200
1991-08-27,0,200
1991-09-03,0,200
1991-09-10,0,200
1991-09-17,0,200
1991-09-24,0,200
1991-10-01,0,200
1991-10-08,2698617,200
1991-10-15,0,200
1991-10-22,0,200
1991-10-29,0,200
1991-11-05,0,200
1991-11-12,0,200
1991-11-19,0,200
1991-11-26,0,200
1991-12-03,0,200
1991-12-10,0,200
1991-12-17,0,200
1991-12-24,0,200
1991-12-31,0,200
1992-01-07,0,200
1992-01-14,0,200
1992-01-21,0,200
1992-01-28,0,200
1992-02-04,0,200
1992-02-11,0,200
1992-02-18,0,200
1992-02-25,0,200
1992-03-03,0,200
1992-03-10,0,200
1992-03-17,0,200
1992-03-24,0,200
1992-03-31,0,200
1992-04-07,0,200
1992-04-14,0,200
1992-04-21,0,200
1992-04-28,0,200
1992-05-05,0,200
1992-05-12,0,200
1992-05-19,0,200
1992-05-26,0,200
1992-06-02,0,200
1992-06-09,0,200
1992-06-16,0,200
1992-06-23,0,200
1992-06-30,0,200
1992-07-07,0,200
1992-07-14,0,200
1992-07-21,0,200
1992-07-28,0,200
1992-08-04,0,200
1992-08-11,0,200
1992-08-18,0,200
1992-08-25,0,200
1992-09-01,0,200
1992-09-08,0,200
1992-09-15,0,200
1992-09-22,0,200
1992-09-29,0,200
1992-10-06,0,200
1992-10-13,0,200
1992-10-20,0,200
1992-10-27,0,200
1992-11-03,0,200
1992-11-10,0,200
1992-11-17,0,200
1992-11-24,0,200
1992-12-01,0,200
1992-12-08,0,200
1992-12-15,0,200
1992-12-22,0,200
1992-12-29,0,200
1993-01-05,0,200
1993-01-12,0,200
1993-01-19,0,200
1993-01-26,0,200
1993-02-02,0,200
1993-02-09,0,200
1993-02-16,0,200
1993-02-23,0,200
1993-03-02,0,200
1993-03-09,0,200
1993-03-16,0,200
1993-03-23,0,200
1993-03-30,0,200
1993-04-06,0,200
1993-04-13,0,200
1993-04-20,0,200
1993-04-27,0,200
1993-05-04,0,200
1993-05-11,0,200
1993-05-18,0,200
1993-05-25,0,200
1993-06-01,0,200
1993-06-08,0,200
1993-06-15,0,200
1993-06-22,0,200
1993-06-29,0,200
1993-07-06,0,200
1993-07-13,0,200
1993-07-20,0,200
1993-07-27,0,200
1993-08-03,0,200
1993-08-10,0,200
1993-08-17,0,200
1993-08-24,0,200
1993-08-31,0,200
1993-09-07,0,200
1993-09-14,0,200
1993-09-21,0,200
1993-09-28,0,200
1993-10-05,9676,200
1993-10-12,0,200
1993-10-19,0,200
1993-10-26,0,200
1993-11-02,0,200
1993-11-09,0,200
1993-11-16,0,200
1993-11-23,0,200
1993-11-30,0,200
1993-12-07,0,200
1993-12-14,9072,200
1993-12-21,0,200
1993-12-28,0,200
1994-01-04,0,200
1994-01-11,0,200
1994-01-18,0,200
1994-01-25,0,200
1994-02-01,0,200
1994-02-08,0,200
1994-02-15,0,200
1994-02-22,0,200
1994-03-01,0,200
1994-03-08,0,200
1994-03-15,0,200
1994-03-22,0,200
1994-03-29,0,200
1994-04-05,0,200
1994-04-12,0,200
1994-04-19,0,200
1994-04-26,0,200
1994-05-03,0,200
1994-05-10,0,200
1994-05-17,0,200
1994-05-24,0,200
1994-05-31,0,200
1994-06-07,0,200
1994-06-14,0,200
1994-06-21,0,200
1994-06-28,0,200
1994-07-05,0,200
1994-07-12,0,200
1994-07-19,0,200
1994-07-26,0,200
1994-08-02,0,200
1994-08-09,0,200
1994-08-16,0,200
1994-08-23,0,200
1994-08-30,0,200
1994-09-06,0,200
1994-09-13,0,200
1994-09-20,27820,200
1994-09-27,0,200
1994-10-04,14515,200
1994-10-11,0,200
1994-10-18,0,200
1994-10-25,0,200
1994-11-01,0,200
1994-11-08,0,200
1994-11-15,0,200
1994-11-22,403401,200
1994-11-29,218937,200
1994-12-06,96163,200
1994-12-13,0,200
1994-12-20,0,200
1994-12-27,0,200
1995-01-03,0,200
1995-01-10,0,200
1995-01-17,0,200
1995-01-24,0,200
1995-01-31,4618252,200
1995-02-07,0,200
1995-02-14,0,200
1995-02-21,0,200
1995-02-28,0,200
1995-03-07,0,200
1995-03-14,0,200
1995-03-21,0,200
1995-03-28,0,200
1995-04-04,10281,200
1995-04-11,0,200
1995-04-18,7188652,200
1995-04-25,0,200
1995-05-02,0,200
1995-05-09,0,200
1995-05-16,44755,200
1995-05-23,0,200
1995-05-30,0,200
1995-06-06,2419,200
1995-06-13,0,200
1995-06-20,0,200
1995-06-27,0,200
1995-07-04,0,200
1995-07-11,0,200
1995-07-18,0,200
1995-07-25,0,200
1995-08-01,0,200
1995-08-08,0,200
1995-08-15,0,200
1995-08-22,0,200
1995-08-29,0,200
1995-09-05,0,200
1995-09-12,0,200
1995-09-19,0,200
1995-09-26,0,200
1995-10-03,8467,200
1995-10-10,0,200
1995-10-17,5138985,200
1995-10-24,3185481,200
1995-10-31,3981398,200
1995-11-07,0,200
1995-11-14,0,200
1995-11-21,0,200
1995-11-28,0,200
1995-12-05,0,200
1995-12-12,0,200
1995-12-19,0,200
1995-12-26,0,200
1996-01-02,1619654,200
1996-01-09,3669926,200
1996-01-16,0,200
1996-01-23,1804723,200
1996-01-30,0,200
1996-02-06,0,200
1996-02-13,0,200
1996-02-20,0,200
1996-02-27,0,200
1996-03-05,0,200
1996-03-12,0,200
1996-03-19,0,200
1996-03-26,0,200
1996-04-02,0,200
1996-04-09,0,200
1996-04-16,0,200
1996-04-23,0,200
1996-04-30,0,200
1996-05-07,0,200
1996-05-14,0,200
1996-05-21,0,200
1996-05-28,0,200
1996-06-04,0,200
1996-06-11,0,200
1996-06-18,0,200
1996-06-25,0,200
1996-07-02,0,200
1996-07-09,0,200
1996-07-16,0,200
1996-07-23,0,200
1996-07-30,0,200
1996-08-06,0,200
1996-08-13,0,200
1996-08-20,0,200
1996-08-27,27216,200
1996-09-03,0,200
1996-09-10,0,200
1996-09-17,998524,200
1996-09-24,15781651,200
1996-10-01,367113,200
1996-10-08,550972,200
1996-10-15,0,200
1996-10-22,1365638,200
1996-10-29,2528668,200
1996-11-05,795312,200
1996-11-12,0,200
1996-11-19,0,200
1996-11-26,0,200
1996-12-03,679795,200
1996-12-10,1726099,200
1996-12-17,498960,200
1996-12-24,0,200
1996-12-31,0,200
1997-01-07,0,200
1997-01-14,0,200
1997-01-21,0,200
1997-01-28,0,200
1997-02-04,0,200
1997-02-11,0,200
1997-02-18,0,200
1997-02-25,0,200
1997-03-04,0,200
1997-03-11,0,200
1997-03-18,0,200
1997-03-25,0,200
1997-04-01,0,200
1997-04-08,0,200
1997-04-15,0,200
1997-04-22,0,200
1997-04-29,0,200
1997-05-06,0,200
1997-05-13,0,200
1997-05-20,0,200
1997-05-27,0,200
1997-06-03,0,200
1997-06-10,0,200
1997-06-17,0,200
1997-06-24,0,200
1997-07-01,0,200
1997-07-08,0,200
1997-07-15,0,200
1997-07-22,0,200
1997-07-29,0,200
1997-08-05,0,200
1997-08-12,0,200
1997-08-19,0,200
1997-08-26,26006,200
1997-09-02,0,200
1997-09-09,0,200
1997-09-16,0,200
1997-09-23,0,200
1997-09-30,390700,200
1997-10-07,0,200
1997-10-14,0,200
1997-10-21,0,200
1997-10-28,0,200
1997-11-04,0,200
1997-11-11,0,200
1997-11-18,0,200
1997-11-25,0,200
1997-12-02,0,200
1997-12-09,0,200
1997-12-16,0,200
1997-12-23,0,200
1997-12-30,0,200
1998-01-06,0,200
1998-01-13,0,200
1998-01-20,0,200
1998-01-27,0,200
1998-02-03,0,200
1998-02-10,0,200
1998-02-17,0,200
1998-02-24,0,200
1998-03-03,0,200
1998-03-10,0,200
1998-03-17,0,200
1998-03-24,0,200
1998-03-31,0,200
1998-04-07,0,200
1998-04-14,0,200
1998-04-21,0,200
1998-04-28,0,200
1998-05-05,0,200
1998-05-12,0,200
1998-05-19,0,200
1998-05-26,0,200
1998-06-02,0,200
1998-06-09,0,200
1998-06-16,0,200
1998-06-23,0,200
1998-06-30,0,200
1998-07-07,0,200
1998-07-14,0,200
1998-07-21,10515052,200
1998-07-28,3804192,200
1998-08-04,10090483,200
1998-08-11,1063238,200
1998-08-18,10118304,200
1998-08-25,771120,200
1998-09-01,0,200
1998-09-08,0,200
1998-09-15,0,200
1998-09-22,0,200
1998-09-29,0,200
1998-10-06,0,200
1998-10-13,0,200
1998-10-20,5890752,200
1998-10-27,28940889,200
1998-11-03,25400995,200
1998-11-10,42419462,200
1998-11-17,25547356,200
1998-11-24,3473971,200
1998-12-01,5318611,200
1998-12-08,0,200
1998-12-15,222566,200
1998-12-22,0,200
1998-12-29,0,200
1999-01-05,0,200
1999-01-12,847929,200
1999-01-19,3733430,200
1999-01-26,0,200
1999-02-02,0,200
1999-02-09,0,200
1999-02-16,0,200
1999-02-23,0,200
1999-03-02,0,200
1999-03-09,0,200
1999-03-16,0,200
1999-03-23,0,200
1999-03-30,122169,200
1999-04-06,0,200
1999-04-13,0,200
1999-04-20,0,200
1999-04-27,0,200
1999-05-04,503193,200
1999-05-11,0,200
1999-05-18,0,200
1999-05-25,0,200
1999-06-01,0,200
1999-06-08,0,200
1999-06-15,0,200
1999-06-22,59270,200
1999-06-29,4838,200
1999-07-06,0,200
1999-07-13,0,200
1999-07-20,0,200
1999-07-27,18144,200
1999-08-03,0,200
1999-08-10,0,200
1999-08-17,0,200
1999-08-24,0,200
1999-08-31,80438,200
1999-09-07,0,200
1999-09-14,0,200
1999-09-21,0,200
1999-09-28,0,200
1999-10-05,0,200
1999-10-12,0,200
1999-10-19,0,200
1999-10-26,0,200
1999-11-02,0,200
1999-11-09,0,200
1999-11-16,0,200
1999-11-23,0,200
1999-11-30,0,200
1999-12-07,0,200
1999-12-14,0,200
1999-12-21,0,200
1999-12-28,0,200
2000-01-04,0,200
2000-01-11,0,200
2000-01-18,0,200
2000-01-25,392515,200
2000-02-01,0,200
2000-02-08,0,200
2000-02-15,586656,200
2000-02-22,0,200
2000-02-29,0,200
2000-03-07,0,200
2000-03-14,0,200
2000-03-21,0,200
2000-03-28,0,200
2000-04-04,0,200
2000-04-11,0,200
2000-04-18,0,200
2000-04-25,0,200
2000-05-02,12096,200
2000-05-09,8967369,200
2000-05-16,0,200
2000-05-23,1814,200
2000-05-30,24192,200
2000-06-06,0,200
2000-06-13,26006,200
2000-06-20,1814,200
2000-06-27,0,200
2000-07-04,0,200
2000-07-11,0,200
2000-07-18,0,200
2000-07-25,0,200
2000-08-01,0,200
2000-08-08,0,200
2000-08-15,5443,200
2000-08-22,0,200
2000-08-29,0,200
2000-09-05,0,200
2000-09-12,0,200
2000-09-19,0,200
2000-09-26,0,200
2000-10-03,0,200
2000-10-10,0,200
2000-10-17,0,200
2000-10-24,0,200
2000-10-31,0,200
2000-11-07,0,200
2000-11-14,0,200
2000-11-21,0,200
2000-11-28,0,200
2000-12-05,0,200
2000-12-12,0,200
2000-12-19,0,200
2000-12-26,0,200
2001-01-02,0,200
2001-01-09,0,200
2001-01-16,0,200
2001-01-23,0,200
2001-01-30,0,200
2001-02-06,0,200
2001-02-13,1192060,200
2001-02-20,0,200
2001-02-27,0,200
2001-03-06,0,200
2001-03-13,1087430,200
2001-03-20,0,200
2001-03-27,2846188,200
2001-04-03,2846793,200
2001-04-10,0,200
2001-04-17,0,200
2001-04-24,0,200
2001-05-01,0,200
2001-05-08,0,200
2001-05-15,0,200
2001-05-22,0,200
2001-05-29,0,200
2001-06-05,0,200
2001-06-12,33868,200
2001-06-19,2419,200
2001-06-26,434851,200
2001-07-03,1209,200
2001-07-10,0,200
2001-07-17,4233,200
2001-07-24,0,200
2001-07-31,1209,200
2001-08-07,0,200
2001-08-14,0,200
2001-08-21,9072,200
2001-08-28,0,200
2001-09-04,0,200
2001-09-11,0,200
2001-09-18,1209,200
2001-09-25,0,200
2001-10-02,0,200
2001-10-09,0,200
2001-10-16,0,200
2001-10-23,0,200
2001-10-30,0,200
2001-11-06,0,200
2001-11-13,0,200
2001-11-20,0,200
2001-11-27,0,200
2001-12-04,0,200
2001-12-11,0,200
2001-12-18,10281,200
2001-12-25,1985558,200
2002-01-01,0,200
2002-01-08,0,200
2002-01-15,0,200
2002-01-22,0,200
2002-01-29,0,200
2002-02-05,0,200
2002-02-12,0,200
2002-02-19,0,200
2002-02-26,0,200
2002-03-05,0,200
2002-03-12,0,200
2002-03-19,0,200
2002-03-26,0,200
2002-04-02,0,200
2002-04-09,0,200
2002-04-16,0,200
2002-04-23,0,200
2002-04-30,0,200
2002-05-07,0,200
2002-05-14,0,200
2002-05-21,0,200
2002-05-28,0,200
2002-06-04,1814,200
2002-06-11,0,200
2002-06-18,0,200
2002-06-25,0,200
2002-07-02,0,200
2002-07-09,0,200
2002-07-16,0,200
2002-07-23,0,200
2002-07-30,0,200
2002-08-06,0,200
2002-08-13,0,200
2002-08-20,0,200
2002-08-27,0,200
2002-09-03,1209,200
2002-09-10,0,200
2002-09-17,604,200
2002-09-24,6048,200
2002-10-01,0,200
2002-10-08,0,200
2002-10-15,1814,200
2002-10-22,1209,200
2002-10-29,58665,200
2002-11-05,0,200
2002-11-12,46569,200
2002-11-19,0,200
2002-11-26,0,200
2002-12-03,0,200
2002-12-10,0,200
2002-12-17,0,200
2002-12-24,0,200
2002-12-31,0,200
2003-01-07,0,200
2003-01-14,0,200
2003-01-21,0,200
2003-01-28,0,200
2003-02-04,0,200
2003-02-11,0,200
2003-02-18,0,200
2003-02-25,0,200
2003-03-04,0,200
2003-03-11,0,200
2003-03-18,0,200
2003-03-25,0,200
2003-04-01,0,200
2003-04-08,0,200
2003-04-15,0,200
2003-04-22,0,200
2003-04-29,0,200
2003-05-06,0,200
2003-05-13,0,200
2003-05-20,1209,200
2003-05-27,0,200
2003-06-03,6652,200
2003-06-10,0,200
2003-06-17,3628,200
2003-06-24,0,200
2003-07-01,0,200
2003-07-08,4233,200
2003-07-15,24192,200
2003-07-22,9072,200
2003-07-29,15724,200
2003-08-05,15724,200
2003-08-12,4838,200
2003-08-19,8467,200
2003-08-26,2419,200
2003-09-02,0,200
2003-09-09,0,200
2003-09-16,7862,200
2003-09-23,6048,200
2003-09-30,6048,200
2003-10-07,8467,200
2003-10-14,0,200
2003-10-21,0,200
2003-10-28,0,200
2003-11-04,0,200
2003-11-11,5443,200
2003-11-18,0,200
2003-11-25,1814,200
2003-12-02,0,200
2003-12-09,0,200
2003-12-16,0,200
2003-12-23,0,200
2003-12-30,0,200
2004-01-06,0,200
2004-01-13,2419,200
2004-01-20,0,200
2004-01-27,0,200
2004-02-03,0,200
2004-02-10,0,200
2004-02-17,0,200
2004-02-24,10103788,200
2004-03-02,2927836,200
2004-03-09,14550883,200
2004-03-16,1736985,200
2004-03-23,9072,200
2004-03-30,0,200
2004-04-06,0,200
2004-04-13,0,200
2004-04-20,0,200
2004-04-27,0,200
2004-05-04,0,200
2004-05-11,0,200
2004-05-18,0,200
2004-05-25,0,200
2004-06-01,0,200
2004-06-08,0,200
2004-06-15,0,200
2004-06-22,0,200
2004-06-29,452995,200
2004-07-06,4252348,200
2004-07-13,0,200
2004-07-20,0,200
2004-07-27,1230768,200
2004-08-03,1366243,200
2004-08-10,173577,200